Dewpoint
63 63 63 63 62 62 62 61 61 60 59 58 58 57 55 53 53 53 52 56 57 56 55 54 55 54 53 52 52 53 52 52 53 54 55 55 55 54 54 54 53 54 55 55 55 55 54 54 53 53 52 50
61 61 62 62 62 62 61 60 60 59 58 57 57 56 56 54 53 53 54 56 55 54 53 52 52 52 51 52 52 52 53 53 53 55 56 55 55 55 54 53 53 54 55 55 55 54 54 53 53 52 51 49
61 60 61 61 61 60 60 59 59 58 58 57 56 55 55 55 55 55 56 56 55 53 51 52 51 53 51 52 52 53 55 56 56 56 56 55 55 55 53 52 52 54 55 54 54 53 53 53 52 51 50 48
61 60 60 59 59 59 58 57 57 56 56 55 55 55 55 56 55 55 55 55 53 53 53 54 54 54 53 54 55 55 56 55 56 56 55 55 55 54 54 53 52 54 54 54 53 53 52 51 50 47 48 47
61 60 59 58 58 57 56 55 55 54 54 54 54 54 55 54 50 50 51 50 50 53 51 54 55 54 54 53 54 53 54 54 54 55 55 55 54 52 51 50 51 53 53 53 52 51 50 49 45 46 46 46
60 59 58 57 55 54 53 54 54 52 52 52 51 53 51 49 48 48 48 48 49 48 49 51 53 54 54 53 53 53 54 54 54 54 55 53 51 49 48 47 41 46 52 51 51 50 48 44 43 43 43 44
58 58 57 56 53 52 52 51 50 50 50 49 49 49 49 48 47 47 47 47 49 51 54 53 55 55 55 55 54 54 54 54 54 54 53 51 49 48 47 41 41 41 43 46 49 47 43 42 42 42 42 42
57 56 54 53 52 51 51 51 50 48 48 47 48 48 48 47 47 47 48 50 49 49 48 50 53 54 54 54 54 54 53 53 52 52 52 49 47 46 43 39 40 40 40 41 42 42 42 41 41 41 41 41
55 54 53 52 51 50 51 50 49 47 47 47 46 47 47 47 47 47 47 46 46 46 46 46 46 48 48 47 47 47 44 44 44 42 39 37 37 36 37 37 38 39 39 40 40 41 41 40 40 40 40 40
54 53 51 50 49 50 49 49 49 48 46 45 46 47 47 47 46 46 46 45 45 45 45 45 45 45 45 44 43 43 42 41 39 37 36 35 35 35 36 38 38 39 38 38 39 39 40 40 39 39 38 38
54 53 51 49 49 48 49 49 48 48 48 47 46 47 47 46 45 45 45 45 44 44 44 44 44 44 43 42 42 41 40 39 38 36 35 34 34 35 36 37 37 37 37 38 38 38 38 38 38 38 37 37
53 52 49 48 47 47 48 49 48 48 48 46 46 46 46 45 45 44 44 44 44 44 44 43 43 43 42 41 41 40 39 37 37 36 35 34 34 35 36 36 36 36 36 36 37 37 37 37 37 36 36 36
53 51 49 48 47 47 47 46 47 48 46 46 46 46 46 45 44 44 44 44 44 43 43 43 42 42 41 40 39 38 37 37 36 35 35 34 34 34 34 35 35 35 35 35 36 36 36 36 36 35 35 35
52 50 49 47 47 48 47 49 47 46 47 47 45 45 45 45 44 44 44 44 43 43 42 42 42 41 40 39 37 36 35 35 35 34 34 34 34 34 34 34 34 34 34 34 34 35 35 34 35 33 34 34
52 51 50 49 48 47 48 48 46 47 47 47 44 44 45 44 44 43 43 43 43 43 42 42 41 40 39 38 36 35 34 34 34 34 34 34 33 33 33 32 32 33 32 32 32 33 32 32 33 33 34 33
51 51 50 49 48 49 48 47 46 46 46 45 45 44 44 44 43 43 43 43 43 43 42 41 41 40 38 37 35 34 34 34 33 33 34 34 34 33 32 31 31 31 30 29 30 31 30 29 29 30 32 33
51 51 50 49 48 48 47 48 47 46 45 45 44 43 43 43 43 43 43 42 42 42 42 41 40 38 37 36 34 33 33 33 33 33 33 34 34 32 31 30 30 30 27 27 27 27 27 27 27 27 30 30
51 51 50 49 49 47 46 46 46 45 45 45 44 42 42 42 42 42 42 42 41 41 41 41 39 37 36 34 32 32 33 33 32 32 33 33 33 34 30 30 29 27 25 23 23 24 25 25 24 25 25 25
50 50 49 49 48 48 46 45 45 44 44 44 44 43 42 41 41 41 41 41 40 40 40 39 38 36 34 32 31 31 32 32 32 32 32 33 32 31 30 29 29 28 24 22 21 21 23 22 22 24 22 22
49 49 49 48 47 47 45 46 44 44 43 42 43 43 42 40 40 40 40 40 40 39 39 38 36 34 31 29 29 30 30 31 31 31 32 32 31 30 28 28 26 26 24 21 20 19 19 21 24 21 20 20
47 47 47 47 47 46 45 44 43 42 42 41 41 40 40 40 39 39 40 39 39 38 38 36 34 30 28 28 28 28 29 30 30 30 31 29 29 29 27 26 25 24 23 21 20 19 18 20 22 20 20 19
45 45 45 45 44 43 44 43 43 41 41 41 40 39 39 39 39 39 39 38 38 37 37 35 32 28 26 26 26 27 28 28 29 29 29 27 25 26 25 23 23 23 22 22 21 19 18 19 18 18 19 21
43 43 42 42 42 41 41 41 42 42 41 40 40 38 38 38 38 38 38 38 37 36 35 33 29 26 24 24 25 25 26 26 27 27 27 26 22 23 23 21 21 21 21 22 21 20 18 19 17 18 18 23
42 42 41 40 41 40 40 40 40 40 40 40 39 38 38 38 38 38 38 38 37 36 35 32 29 25 24 23 23 24 24 25 26 26 25 24 21 20 22 20 19 19 20 19 19 20 18 17 17 17 21 20
41 40 40 40 39 38 38 38 38 38 38 39 39 39 38 37 38 38 37 37 36 36 35 32 29 26 24 23 22 22 23 24 25 26 25 23 22 19 18 17 18 19 17 15 15 17 16 15 17 22 21 18
41 40 40 39 38 38 37 36 35 35 36 36 37 38 38 37 38 38 37 36 35 35 34 31 29 27 25 23 21 20 21 22 26 25 23 21 19 19 18 15 17 18 15 13 13 12 12 15 17 19 22 19
40 39 40 39 38 38 35 36 36 35 35 36 35 35 36 36 35 37 36 35 35 34 33 31 29 28 27 25 24 19 18 21 22 22 22 20 20 16 15 15 19 17 15 15 14 15 12 10 9 13 17 18
38 38 37 37 37 37 36 34 35 35 35 34 34 34 34 34 34 35 34 34 34 34 32 31 30 29 27 26 24 19 17 18 19 19 19 18 20 16 14 13 15 17 14 16 13 8 11 13 10 2 4 12
38 37 36 36 36 35 35 35 34 34 33 33 33 33 33 33 33 34 34 34 34 34 32 32 31 30 28 26 25 21 17 16 17 17 18 17 17 16 17 17 15 17 15 13 12 16 8 3 1 10 8 9
38 37 36 34 34 34 33 33 33 34 35 34 33 33 33 33 33 33 33 33 32 32 32 32 32 31 29 29 26 25 20 16 15 16 16 16 15 15 14 18 17 18 18 15 14 15 13 18 13 14 15 3
38 37 37 36 36 36 34 34 34 34 34 33 33 33 33 33 32 32 32 32 32 32 30 31 31 31 30 30 30 28 26 20 19 19 17 17 15 15 16 15 17 18 18 16 18 18 15 14 16 17 15 8